Temperature
9 11 10 10 10 11 12 12 12 11 10 10 11 11 12 11 10 10 10 10 9 9 9 9 9 9 9 9 9 9 9 9 9 9 9 9 9 9 9 8 8 8 8 9
11 9 8 9 10 11 11 12 11 10 9 10 10 11 12 11 10 10 10 10 9 9 8 9 9 9 9 9 9 9 9 9 9 9 9 8 8 8 8 8 8 8 8 8
10 8 8 9 10 10 10 11 10 10 10 9 10 13 13 12 10 9 9 9 9 9 9 9 9 9 9 9 9 9 9 8 8 8 8 8 8 8 8 8 8 8 7 7
9 8 9 9 9 10 10 9 9 9 11 12 11 13 14 12 11 11 10 9 9 8 8 8 9 9 9 9 8 8 8 8 8 8 8 7 7 7 7 7 7 7 7 7
8 8 9 9 8 9 9 8 9 9 10 10 11 11 14 12 12 12 11 10 9 8 8 8 9 9 8 8 8 8 8 8 8 7 7 7 7 7 7 7 7 7 6 6
8 7 8 8 8 8 8 8 9 9 10 11 10 11 13 14 13 13 12 10 9 8 8 8 8 8 8 8 8 8 8 7 7 7 7 7 7 6 6 6 6 6 6 6
9 8 8 8 9 9 9 10 11 11 11 12 9 9 12 13 12 11 11 10 9 8 8 8 8 8 8 8 8 8 7 7 7 7 7 6 6 6 6 6 6 5 5 5
9 9 8 8 8 9 9 10 11 12 13 13 9 10 13 12 10 9 9 9 8 8 8 9 9 9 8 8 8 8 7 7 7 7 6 6 6 6 6 5 5 5 5 5
10 9 8 7 7 9 9 9 9 10 9 10 12 12 12 11 11 10 10 9 9 8 8 8 9 8 8 8 8 8 7 7 7 6 6 6 6 5 5 5 5 5 4 4
9 8 8 7 8 7 8 9 9 9 10 12 13 13 13 12 12 11 10 10 9 8 8 8 8 8 8 8 8 7 7 7 6 6 6 5 5 5 5 5 4 4 4 4
8 8 8 8 8 9 8 8 9 9 9 11 12 14 12 12 11 11 10 9 8 8 8 9 9 8 8 8 8 7 7 7 6 6 6 5 5 5 5 4 4 4 4 3
8 8 8 8 7 7 8 9 9 10 9 9 10 12 12 10 10 9 9 9 8 8 8 8 8 8 8 8 8 7 7 7 6 6 5 5 5 5 4 4 4 4 3 3
8 8 9 9 8 7 7 8 8 8 9 9 10 12 11 9 9 9 9 9 8 8 8 8 8 8 8 8 7 7 7 7 6 6 5 5 5 4 4 4 4 3 3 3
7 8 9 10 10 9 8 7 7 8 8 9 9 11 11 11 11 10 9 9 8 8 8 8 8 8 7 7 7 7 7 6 6 6 5 5 5 4 4 4 3 3 3 2
7 8 7 7 8 7 7 8 7 7 8 9 10 10 11 11 11 9 8 8 7 7 7 7 7 7 7 7 7 7 6 6 6 5 5 5 4 4 4 3 3 3 2 2
7 7 6 6 7 6 6 7 7 7 8 8 9 9 11 10 8 8 8 7 7 7 7 7 7 7 7 7 7 7 6 6 5 5 5 5 4 4 4 3 3 3 2 2
6 6 6 7 6 6 8 9 8 7 7 8 8 9 10 9 9 8 7 7 7 7 7 7 7 7 7 7 7 6 6 6 5 5 5 4 4 4 3 3 3 2 2 2
6 6 6 6 7 7 10 8 8 7 8 8 8 9 9 8 7 7 7 7 7 7 6 6 6 6 6 6 6 6 6 5 5 5 5 4 4 3 3 3 2 2 2 1
5 6 6 6 7 8 9 7 7 7 8 8 7 8 8 7 6 8 8 7 6 6 6 6 6 6 6 6 6 5 5 5 5 5 4 4 4 3 3 3 2 2 1 1
3 5 6 6 6 8 10 7 6 7 9 8 7 7 7 6 8 9 7 6 6 6 6 5 6 6 6 6 5 5 5 5 5 4 4 4 3 3 3 2 2 1 1 1
3 4 4 5 5 8 8 6 6 8 10 7 6 6 6 6 7 6 6 5 5 5 5 5 5 5 5 5 5 5 4 4 4 4 4 3 3 3 2 2 1 1 1 0
5 5 4 5 5 7 7 6 7 9 7 6 6 6 5 5 5 5 5 5 5 5 5 5 5 5 5 4 4 4 4 4 4 3 3 3 3 2 2 1 1 1 0 -0
5 6 7 6 8 8 6 7 6 6 6 5 5 5 4 4 4 4 4 4 4 4 4 4 4 4 4 4 4 4 4 3 3 3 3 3 2 2 1 1 1 0 -0 -1
5 4 5 5 6 6 6 6 5 5 5 5 4 4 4 3 3 4 4 4 4 4 4 4 4 4 4 4 4 4 3 3 3 3 2 2 2 2 1 1 0 -0 -0 -1
6 4 4 5 6 6 6 5 5 5 5 4 4 4 3 3 3 3 3 3 3 3 3 3 3 3 3 3 3 3 3 3 2 2 2 2 1 1 1 0 -0 -0 -1 -1
4 5 5 6 7 6 6 5 5 4 4 4 4 4 4 3 3 3 3 3 3 3 3 3 3 3 3 3 3 3 2 2 2 2 1 1 1 0 0 -0 -1 -1 -1 -2
Wind_Speed
5 6 6 5 4 4 6 6 5 2 2 2 3 6 8 6 7 9 8 8 8 7 4 3 3 2 1 1 1 3 4 5 4 3 3 3 4 4 5 6 8 9 9 9
6 7 4 3 5 6 6 6 4 2 2 2 4 8 8 7 8 8 8 8 8 7 5 4 4 3 2 1 0 1 2 3 4 3 3 2 3 3 4 5 6 8 9 9
8 4 2 4 6 7 6 3 3 1 2 0 4 5 4 4 5 6 7 7 7 8 7 6 6 5 3 2 1 1 1 2 3 3 2 2 1 2 2 4 5 7 8 8
7 4 3 5 5 3 3 3 3 1 1 1 3 3 4 3 5 6 7 7 7 7 7 7 7 6 5 4 3 2 1 1 1 1 2 2 2 3 3 4 4 5 7 7
5 3 4 4 3 2 3 2 2 1 0 2 2 3 5 3 5 5 5 6 6 7 7 7 7 6 5 4 4 3 2 2 2 1 1 2 2 2 2 3 4 5 5 6
5 2 2 3 3 3 3 3 2 1 1 3 2 3 5 4 5 4 3 4 5 6 7 7 6 6 5 5 4 4 4 3 3 2 2 2 2 2 3 3 4 4 4 4
4 3 2 1 2 2 1 1 1 1 2 2 2 4 7 3 4 5 5 4 4 4 6 6 7 7 7 6 6 5 5 5 4 3 3 3 3 3 3 3 3 4 4 4
2 2 1 1 1 0 1 1 1 2 2 2 2 6 5 2 4 5 6 5 4 4 5 6 7 7 7 7 7 7 7 6 5 5 4 4 3 3 2 3 3 3 3 4
1 1 1 1 1 0 2 1 1 0 1 4 4 5 7 2 3 3 4 3 3 3 3 5 6 6 7 7 8 8 8 7 6 5 5 4 4 4 4 3 3 3 3 4
1 1 1 0 2 2 1 3 2 1 2 3 4 5 3 1 1 1 2 2 3 4 5 5 6 6 6 7 7 7 8 8 7 6 5 4 5 4 4 4 4 4 4 4
1 1 1 2 3 3 3 3 2 1 2 3 4 3 0 2 1 2 2 3 5 6 6 6 6 6 6 6 7 7 8 8 7 7 6 6 5 5 4 4 4 4 4 4
1 0 2 2 0 1 3 4 4 3 3 3 4 5 2 2 2 3 4 6 7 8 7 7 7 6 6 7 7 7 8 8 8 7 7 7 6 5 5 5 4 4 4 4
2 2 2 2 2 3 4 4 5 3 2 5 5 6 3 1 3 5 8 10 9 8 8 7 6 6 6 7 7 7 8 8 8 7 7 7 7 6 6 5 5 4 4 4
2 3 5 5 1 2 5 6 9 8 6 7 11 13 9 8 11 12 12 11 10 9 8 8 7 7 7 7 7 7 8 8 7 8 8 8 8 7 6 5 5 5 4 4
2 4 6 9 9 9 12 13 13 16 14 11 12 14 16 14 13 12 11 10 10 9 8 8 8 8 8 8 7 7 7 7 8 8 8 9 8 7 6 6 5 5 5 5
2 4 4 6 6 8 13 17 18 18 19 20 22 21 16 11 8 8 9 9 9 9 9 9 9 9 9 8 8 7 7 7 8 9 9 8 7 7 7 6 6 5 5 5
3 2 3 5 5 9 10 10 12 10 12 12 15 12 9 9 9 10 10 9 9 9 10 10 10 9 9 8 8 8 7 6 8 9 8 8 8 8 7 7 6 7 6 6
4 3 3 5 7 7 1 2 5 9 10 13 13 12 10 10 11 11 11 9 9 10 11 11 10 10 9 8 7 7 6 7 8 9 9 8 8 8 7 7 7 7 6 6
7 5 4 3 5 9 6 3 4 6 6 7 11 12 10 9 10 9 6 5 9 11 12 11 11 10 9 8 7 7 7 7 8 9 9 8 8 8 8 8 8 7 6 6
4 6 5 4 5 6 2 2 3 2 4 1 3 6 8 7 9 9 6 9 12 12 11 11 10 9 9 7 6 7 8 8 9 9 9 8 8 8 9 8 8 6 6 6
5 6 8 9 8 9 5 3 4 3 2 1 3 7 9 9 11 13 14 14 13 13 12 11 10 9 8 7 6 8 8 10 9 8 8 8 8 9 8 7 6 6 6 6
8 7 8 7 8 8 4 6 5 4 4 6 9 10 11 13 15 15 14 14 13 13 12 10 9 9 8 6 7 9 10 9 7 7 7 8 8 7 6 7 6 6 6 6
9 9 6 9 9 3 4 6 6 6 8 10 11 12 13 15 15 15 14 14 13 12 11 9 9 10 9 7 8 10 9 7 7 7 8 8 8 7 7 7 7 6 6 6
6 6 7 9 12 12 11 11 11 10 12 13 13 13 13 15 15 15 13 13 12 12 10 9 9 10 10 8 8 10 8 7 7 8 8 7 7 7 7 6 6 6 6 6
7 6 7 12 13 12 10 9 10 11 11 13 13 12 12 13 14 13 12 12 11 11 10 9 9 10 11 9 9 8 7 7 8 8 8 7 7 7 7 7 7 8 8 7
9 12 12 13 11 10 12 10 11 11 12 12 12 12 11 11 12 12 12 11 11 10 9 9 10 10 11 10 9 8 7 7 8 8 8 6 6 6 6 6 6 9 9 10
Wind_Direction
41 79 81 68 56 103 128 131 120 93 29 324 259 267 266 244 234 236 233 227 223 222 212 194 186 173 154 85 37 27 18 14 11 6 359 0 7 7 11 12 9 5 2 0
91 69 58 76 89 101 109 116 105 86 29 328 301 284 272 245 235 237 235 229 226 220 206 198 196 193 198 203 350 18 16 13 14 9 356 347 339 348 359 3 7 5 3 2
89 75 75 98 92 92 73 98 104 75 350 145 313 276 231 210 223 234 238 235 229 222 216 205 203 208 211 221 241 300 347 360 9 4 1 353 343 329 346 355 357 1 2 3
73 55 89 90 71 64 95 89 113 103 309 301 340 287 245 214 235 229 229 227 226 219 218 213 209 212 215 223 224 233 261 306 338 346 349 347 334 331 334 336 342 350 359 2
81 59 63 69 49 44 100 116 113 96 61 277 221 253 261 209 233 220 217 222 224 219 218 218 217 218 220 219 217 223 233 251 265 277 293 301 307 319 324 331 338 346 355 360
83 70 43 62 66 72 124 139 125 139 233 254 214 243 262 214 219 210 206 221 227 222 222 226 224 223 225 220 219 223 228 238 243 245 255 267 285 302 314 327 333 337 340 345
80 76 53 43 115 104 152 237 242 227 234 246 140 247 256 252 239 242 252 256 246 228 225 226 224 224 225 224 224 225 228 234 235 236 240 247 256 267 284 304 315 320 325 332
105 102 47 27 14 102 100 321 319 291 291 301 210 247 261 291 270 259 255 257 256 239 230 231 234 234 234 232 230 228 229 234 231 231 234 241 245 252 265 279 290 300 307 315
95 112 67 34 11 273 146 121 15 326 293 276 257 268 285 228 235 227 227 232 246 261 254 248 244 241 240 238 235 231 231 233 230 229 231 236 237 242 254 266 276 286 295 306
41 148 167 94 156 59 1 143 167 201 282 288 283 267 262 227 191 184 217 261 295 298 285 273 261 253 248 244 240 235 232 232 230 225 225 230 232 236 245 255 265 278 290 299
39 176 181 199 217 205 165 177 194 196 271 278 294 286 140 246 277 288 300 310 309 302 293 282 273 264 257 250 242 235 230 229 227 224 223 224 226 229 236 244 256 269 280 288
74 232 240 229 91 318 239 224 203 235 233 239 275 280 64 250 283 296 307 312 310 305 296 287 277 265 256 250 245 238 232 227 225 223 223 225 226 224 230 240 250 259 269 277
172 221 264 196 180 190 225 218 215 230 240 226 239 259 105 138 317 312 308 309 308 305 300 294 282 268 260 255 249 243 235 230 225 220 222 225 227 227 232 239 246 252 261 269
193 233 241 262 296 195 229 221 209 208 225 238 238 257 265 288 307 308 306 304 303 299 294 290 286 279 269 261 255 248 241 231 223 219 222 227 228 228 231 235 240 247 255 262
224 257 256 267 269 260 257 250 229 223 231 246 260 267 278 292 299 298 299 299 300 298 297 293 289 285 278 269 261 253 245 231 221 220 224 228 228 227 227 230 235 242 249 256
240 265 282 276 262 266 266 256 244 241 242 249 263 275 284 293 292 295 301 303 301 299 300 299 294 286 279 272 266 257 248 233 221 223 227 225 222 221 222 226 230 236 243 248
214 236 281 280 306 298 270 251 225 221 224 232 246 256 281 289 294 302 304 300 297 301 302 301 296 287 280 275 268 259 251 237 225 228 229 223 220 220 222 223 228 232 237 242
206 203 254 292 308 258 255 119 207 224 243 232 246 264 276 287 298 294 285 283 292 303 304 301 296 290 283 277 269 259 246 233 228 230 229 223 219 222 223 224 229 233 236 240
216 213 241 263 282 281 284 221 194 220 269 237 242 264 284 299 298 286 271 278 295 298 297 294 290 284 278 272 264 253 242 234 231 233 231 225 219 220 221 224 229 230 232 238
188 219 232 235 258 263 303 136 164 215 267 188 230 291 306 307 300 306 309 304 302 300 297 295 293 285 275 271 261 248 245 238 237 237 235 228 221 221 223 226 227 226 227 235
166 197 220 232 247 268 274 161 165 244 331 27 297 306 301 289 289 303 306 302 300 299 296 294 288 279 273 269 256 250 248 245 244 241 235 227 222 222 224 224 222 221 222 230
194 192 203 206 225 254 176 159 209 294 325 303 306 304 298 292 295 299 300 298 297 297 294 292 286 280 276 263 248 251 253 254 248 238 232 228 225 221 219 218 218 217 219 227
216 212 210 211 229 267 184 229 277 295 294 299 302 302 300 296 294 298 299 296 296 295 293 290 284 282 278 264 247 252 259 255 244 236 233 229 223 219 217 216 216 215 218 226
231 219 233 252 261 265 267 271 275 280 286 293 296 298 296 292 293 296 296 295 294 293 291 288 282 279 278 273 260 257 261 252 240 236 233 227 221 219 217 216 216 216 217 223
237 199 232 257 272 284 273 267 278 290 294 294 296 295 292 290 290 293 293 292 291 291 291 285 278 277 278 279 270 264 256 241 237 236 233 227 223 222 221 220 220 221 225 228
223 226 239 258 270 277 288 292 294 292 295 299 300 298 296 290 288 290 289 288 289 288 290 286 281 279 280 278 273 267 253 236 233 234 231 226 221 222 222 224 230 228 233 237
Height
1517 1517 1521 1523 1523 1520 1520 1520 1523 1528 1532 1531 1527 1526 1524 1526 1526 1526 1526 1526 1527 1528 1529 1529 1529 1529 1530 1530 1529 1529 1528 1527 1525 1524 1523 1521 1520 1518 1517 1515 1513 1511 1509 1507
1519 1525 1529 1528 1526 1524 1523 1523 1526 1530 1533 1531 1527 1523 1520 1521 1522 1522 1523 1523 1524 1526 1526 1527 1527 1528 1528 1528 1528 1527 1526 1525 1524 1523 1522 1520 1519 1517 1515 1514 1512 1510 1507 1505
1522 1531 1531 1529 1527 1526 1528 1527 1529 1531 1532 1532 1529 1517 1515 1518 1520 1521 1521 1521 1522 1523 1524 1525 1525 1526 1527 1527 1527 1526 1525 1524 1523 1522 1520 1519 1517 1515 1514 1512 1510 1508 1506 1504
1529 1533 1532 1530 1531 1528 1530 1535 1534 1533 1528 1525 1529 1519 1510 1513 1516 1517 1518 1519 1519 1520 1521 1522 1523 1524 1524 1525 1525 1524 1523 1522 1521 1520 1518 1517 1515 1514 1512 1510 1508 1506 1504 1502
1533 1535 1533 1533 1535 1534 1534 1537 1536 1534 1531 1529 1528 1526 1509 1513 1511 1512 1514 1516 1517 1518 1519 1520 1521 1522 1523 1523 1522 1522 1521 1520 1519 1518 1516 1515 1513 1512 1510 1508 1506 1504 1502 1500
1536 1538 1537 1537 1538 1538 1538 1537 1536 1534 1530 1528 1527 1526 1511 1506 1507 1509 1512 1514 1515 1516 1517 1517 1518 1519 1520 1520 1519 1519 1518 1517 1516 1515 1514 1512 1511 1509 1507 1506 1504 1502 1500 1498
1535 1538 1539 1539 1537 1538 1537 1533 1529 1527 1525 1520 1531 1528 1512 1505 1508 1510 1511 1512 1513 1514 1514 1515 1516 1516 1517 1517 1516 1516 1515 1515 1514 1512 1511 1510 1508 1507 1505 1503 1501 1499 1497 1495
1533 1536 1539 1539 1538 1536 1536 1534 1530 1525 1519 1516 1529 1521 1505 1507 1509 1510 1511 1511 1512 1512 1512 1513 1513 1514 1514 1514 1513 1513 1512 1511 1510 1509 1508 1507 1505 1504 1502 1500 1499 1497 1495 1493
1531 1536 1541 1541 1541 1539 1536 1536 1538 1534 1534 1529 1513 1511 1505 1506 1507 1508 1509 1510 1510 1511 1511 1511 1511 1511 1511 1510 1510 1509 1508 1508 1507 1506 1505 1503 1502 1500 1499 1497 1496 1494 1492 1490
1535 1537 1539 1541 1541 1541 1540 1538 1537 1535 1530 1518 1509 1507 1502 1501 1503 1506 1508 1509 1509 1509 1509 1508 1508 1507 1507 1507 1506 1505 1504 1504 1503 1502 1501 1500 1499 1497 1496 1494 1492 1491 1489 1487
1537 1537 1539 1539 1538 1535 1540 1539 1536 1535 1533 1525 1512 1502 1501 1503 1504 1506 1507 1508 1508 1507 1506 1505 1504 1504 1503 1503 1502 1501 1500 1499 1499 1498 1497 1496 1495 1494 1492 1491 1489 1488 1486 1484
1539 1537 1535 1536 1539 1540 1537 1535 1534 1531 1532 1531 1523 1509 1503 1505 1506 1507 1507 1507 1506 1505 1503 1502 1501 1500 1499 1498 1497 1496 1495 1495 1494 1494 1493 1492 1491 1490 1489 1488 1486 1484 1483 1481
1539 1537 1533 1530 1537 1540 1537 1535 1535 1534 1532 1528 1523 1507 1504 1505 1505 1506 1506 1505 1503 1502 1500 1499 1498 1496 1495 1494 1493 1492 1490 1490 1489 1489 1488 1488 1487 1486 1485 1484 1483 1481 1479 1478
1539 1536 1533 1526 1524 1529 1531 1532 1533 1533 1530 1521 1515 1502 1500 1502 1503 1504 1503 1502 1500 1499 1497 1496 1494 1492 1491 1490 1488 1487 1486 1485 1485 1484 1484 1483 1483 1482 1481 1480 1479 1477 1476 1474
1539 1535 1534 1531 1530 1530 1527 1525 1527 1527 1520 1515 1503 1502 1498 1501 1502 1502 1500 1499 1497 1495 1493 1492 1490 1488 1487 1486 1484 1483 1482 1481 1480 1479 1479 1478 1478 1478 1477 1476 1475 1474 1472 1470
1538 1536 1535 1531 1529 1529 1525 1519 1519 1519 1517 1512 1507 1503 1498 1500 1500 1499 1497 1496 1493 1492 1490 1488 1486 1484 1483 1481 1480 1478 1477 1476 1475 1474 1474 1474 1473 1473 1472 1472 1471 1469 1468 1466
1537 1536 1535 1525 1526 1525 1512 1504 1508 1510 1507 1507 1504 1499 1497 1498 1497 1496 1494 1492 1490 1489 1487 1484 1482 1480 1478 1477 1475 1474 1473 1472 1470 1470 1469 1469 1468 1468 1467 1467 1466 1465 1463 1462
1536 1535 1534 1529 1525 1518 1500 1504 1504 1504 1502 1502 1500 1497 1497 1497 1495 1493 1491 1489 1487 1486 1483 1481 1478 1476 1474 1472 1470 1469 1468 1467 1466 1465 1464 1464 1463 1463 1462 1462 1461 1460 1459 1457
1536 1534 1532 1531 1522 1507 1498 1502 1503 1503 1497 1496 1497 1496 1495 1494 1492 1488 1487 1486 1484 1482 1480 1477 1474 1472 1469 1467 1466 1464 1462 1461 1460 1459 1459 1458 1458 1458 1457 1456 1456 1455 1454 1453
1537 1535 1533 1529 1525 1508 1496 1501 1502 1503 1494 1494 1495 1494 1494 1493 1488 1483 1484 1482 1479 1477 1474 1471 1469 1466 1464 1462 1461 1459 1457 1456 1455 1454 1454 1453 1453 1452 1452 1451 1451 1450 1449 1448
1534 1534 1532 1527 1522 1503 1497 1500 1502 1498 1491 1494 1493 1492 1491 1490 1487 1483 1480 1477 1474 1471 1469 1466 1463 1461 1459 1457 1455 1453 1452 1451 1450 1449 1448 1447 1447 1447 1446 1446 1445 1445 1444 1443
1520 1521 1523 1520 1519 1504 1495 1498 1496 1492 1492 1492 1491 1489 1487 1484 1481 1478 1474 1471 1468 1466 1463 1461 1458 1455 1454 1452 1450 1448 1446 1446 1444 1443 1442 1441 1441 1441 1441 1440 1440 1439 1439 1438
1513 1509 1505 1505 1497 1492 1493 1492 1492 1491 1490 1488 1487 1485 1482 1479 1475 1472 1469 1466 1463 1461 1458 1455 1452 1450 1448 1446 1444 1442 1441 1440 1438 1437 1436 1436 1435 1435 1435 1434 1434 1434 1433 1433
1506 1507 1505 1500 1491 1490 1490 1489 1488 1488 1486 1484 1482 1479 1477 1473 1470 1466 1463 1460 1458 1455 1453 1450 1447 1444 1442 1441 1439 1437 1436 1434 1432 1431 1430 1430 1429 1429 1429 1428 1428 1428 1428 1427
1499 1502 1499 1493 1487 1486 1484 1484 1483 1482 1481 1478 1476 1474 1471 1468 1464 1461 1458 1455 1452 1450 1447 1445 1442 1439 1437 1435 1433 1432 1430 1428 1426 1425 1425 1424 1424 1423 1423 1422 1422 1422 1422 1422
1492 1492 1490 1483 1482 1483 1480 1480 1479 1477 1475 1473 1470 1467 1465 1463 1459 1456 1453 1450 1447 1444 1442 1439 1437 1434 1432 1430 1427 1426 1424 1422 1421 1419 1419 1418 1418 1417 1417 1417 1416 1416 1417 1416